Time,TemperatureF,DewpointF,PressureIn,WindDirection,WindDirectionDegrees,WindSpeedMPH,WindSpeedGustMPH,Humidity,HourlyPrecipIn,Conditions,Clouds,dailyrainin,SolarRadiationWatts/m^2,SoftwareType,DateUTC
2013-07-16 00:00:00,75.0,72.5,30.11,NW,323,0.0,0.0,92,0.00,SCT,OVC,0.00,0.0,WeatherDisplay:10.37,2013-07-16 04:00:00,
2013-07-16 00:01:00,75.0,72.5,30.11,NW,323,0.0,0.0,92,0.00,SCT,OVC,0.00,0.0,WeatherDisplay:10.37,2013-07-16 04:01:00,
2013-07-16 00:06:00,74.8,72.4,30.11,NW,323,0.0,0.0,92,0.00,SCT,OVC,0.00,0.0,WeatherDisplay:10.37,2013-07-16 04:06:00,
2013-07-16 00:11:00,74.7,72.2,30.11,NW,322,0.0,0.0,92,0.00,SCT,OVC,0.00,0.0,WeatherDisplay:10.37,2013-07-16 04:11:00,
2013-07-16 00:16:00,74.7,72.2,30.11,NW,322,0.0,0.0,92,0.00,SCT,OVC,0.00,0.0,WeatherDisplay:10.37,2013-07-16 04:16:00,
2013-07-16 00:21:00,74.7,72.5,30.11,NW,323,0.0,0.0,93,0.00,SCT,OVC,0.00,0.0,WeatherDisplay:10.37,2013-07-16 04:21:00,
2013-07-16 00:26:00,74.5,72.3,30.11,NW,323,0.0,0.0,93,0.00,SCT,OVC,0.00,0.0,WeatherDisplay:10.37,2013-07-16 04:26:00,
2013-07-16 00:31:00,74.5,72.3,30.11,NW,323,0.0,0.0,93,0.00,SCT,OVC,0.00,0.0,WeatherDisplay:10.37,2013-07-16 04:31:00,
2013-07-16 00:36:00,74.5,72.3,30.11,NW,323,0.0,0.0,93,0.00,SCT,OVC,0.00,0.0,WeatherDisplay:10.37,2013-07-16 04:36:00,
2013-07-16 00:41:00,74.5,72.3,30.11,NW,322,0.0,0.0,93,0.00,SCT,OVC,0.00,0.0,WeatherDisplay:10.37,2013-07-16 04:41:00,
2013-07-16 00:46:00,74.3,72.1,30.11,NW,322,0.0,0.0,93,0.00,SCT,OVC,0.00,0.0,WeatherDisplay:10.37,2013-07-16 04:46:00,
2013-07-16 00:51:00,74.3,72.1,30.11,NW,322,0.0,0.0,93,0.00,SCT,OVC,0.00,0.0,WeatherDisplay:10.37,2013-07-16 04:51:00,
2013-07-16 00:56:00,74.3,72.1,30.11,NW,323,0.0,0.0,93,0.00,SCT,OVC,0.00,0.0,WeatherDisplay:10.37,2013-07-16 04:56:00,
2013-07-16 01:01:00,74.3,72.5,30.11,NW,322,0.0,0.0,94,0.00,FEW,OVC,0.00,0.0,WeatherDisplay:10.37,2013-07-16 05:01:00,
2013-07-16 01:06:00,74.3,72.5,30.11,NW,322,0.0,0.0,94,0.00,FEW,OVC,0.00,0.0,WeatherDisplay:10.37,2013-07-16 05:06:00,
2013-07-16 01:11:00,74.3,72.5,30.11,NW,322,0.0,0.0,94,0.00,FEW,OVC,0.00,0.0,WeatherDisplay:10.37,2013-07-16 05:11:00,
2013-07-16 01:16:00,74.1,72.3,30.11,NW,322,0.0,0.0,94,0.00,FEW,OVC,0.00,0.0,WeatherDisplay:10.37,2013-07-16 05:16:00,
2013-07-16 01:21:00,74.1,72.3,30.11,NW,322,0.0,0.0,94,0.00,FEW,OVC,0.00,0.0,WeatherDisplay:10.37,2013-07-16 05:21:00,
2013-07-16 01:26:00,73.9,72.1,30.11,NW,312,0.0,0.0,94,0.00,FEW,OVC,0.00,0.0,WeatherDisplay:10.37,2013-07-16 05:26:00,
2013-07-16 01:31:00,73.9,72.1,30.11,NW,312,0.0,0.0,94,0.00,FEW,OVC,0.00,0.0,WeatherDisplay:10.37,2013-07-16 05:31:00,
2013-07-16 01:36:00,73.8,71.9,30.11,NW,312,0.0,0.0,94,0.00,FEW,OVC,0.00,0.0,WeatherDisplay:10.37,2013-07-16 05:36:00,
2013-07-16 01:41:00,73.8,71.9,30.11,NW,312,0.0,0.0,94,0.00,FEW,OVC,0.00,0.0,WeatherDisplay:10.37,2013-07-16 05:41:00,
2013-07-16 01:46:00,73.6,71.7,30.11,NW,312,0.0,0.0,94,0.00,FEW,OVC,0.00,0.0,WeatherDisplay:10.37,2013-07-16 05:46:00,
2013-07-16 01:51:00,73.4,71.6,30.11,NW,312,0.0,0.0,94,0.00,FEW,OVC,0.00,0.0,WeatherDisplay:10.37,2013-07-16 05:51:00,
2013-07-16 01:56:00,73.2,71.4,30.11,NW,311,0.0,0.0,94,0.00,FEW,OVC,0.00,0.0,WeatherDisplay:10.37,2013-07-16 05:56:00,
2013-07-16 02:01:00,73.0,71.2,30.11,NW,312,0.0,0.0,94,0.00,SCT,OVC,0.00,0.0,WeatherDisplay:10.37,2013-07-16 06:01:00,
2013-07-16 02:06:00,73.0,71.2,30.11,NW,312,0.0,0.0,94,0.00,SCT,OVC,0.00,0.0,WeatherDisplay:10.37,2013-07-16 06:06:00,
2013-07-16 02:11:00,72.9,71.3,30.11,NW,312,0.0,0.0,95,0.00,SCT,OVC,0.00,0.0,WeatherDisplay:10.37,2013-07-16 06:11:00,
2013-07-16 02:16:00,72.9,71.3,30.11,NW,311,0.0,0.0,95,0.00,SCT,OVC,0.00,0.0,WeatherDisplay:10.37,2013-07-16 06:16:00,
2013-07-16 02:21:00,72.7,71.2,30.11,NW,312,0.0,0.0,95,0.00,SCT,OVC,0.00,0.0,WeatherDisplay:10.37,2013-07-16 06:21:00,
2013-07-16 02:26:00,72.7,71.2,30.11,NW,312,0.0,0.0,95,0.00,SCT,OVC,0.00,0.0,WeatherDisplay:10.37,2013-07-16 06:26:00,
2013-07-16 02:31:00,72.5,71.0,30.11,NW,311,0.0,0.0,95,0.00,SCT,OVC,0.00,0.0,WeatherDisplay:10.37,2013-07-16 06:31:00,
2013-07-16 02:36:00,72.5,71.0,30.11,NW,312,0.0,0.0,95,0.00,SCT,OVC,0.00,0.0,WeatherDisplay:10.37,2013-07-16 06:36:00,
2013-07-16 02:41:00,72.3,70.8,30.11,NW,312,0.0,0.0,95,0.00,SCT,OVC,0.00,0.0,WeatherDisplay:10.37,2013-07-16 06:41:00,
2013-07-16 02:46:00,72.3,70.8,30.11,NW,312,0.0,0.0,95,0.00,SCT,OVC,0.00,0.0,WeatherDisplay:10.37,2013-07-16 06:46:00,
2013-07-16 02:51:00,72.1,70.6,30.11,NW,312,0.0,0.0,95,0.00,SCT,OVC,0.00,0.0,WeatherDisplay:10.37,2013-07-16 06:51:00,
2013-07-16 02:56:00,72.1,70.6,30.08,NW,312,0.0,0.0,95,0.00,SCT,OVC,0.00,0.0,WeatherDisplay:10.37,2013-07-16 06:56:00,
2013-07-16 03:01:00,72.0,70.4,30.08,NW,312,0.0,0.0,95,0.00,CLR,OVC,0.00,0.0,WeatherDisplay:10.37,2013-07-16 07:01:00,
2013-07-16 03:06:00,72.0,70.8,30.08,NW,311,0.0,0.0,96,0.00,CLR,OVC,0.00,0.0,WeatherDisplay:10.37,2013-07-16 07:06:00,
2013-07-16 03:11:00,71.8,70.6,30.08,NNW,338,0.0,0.0,96,0.00,CLR,OVC,0.00,0.0,WeatherDisplay:10.37,2013-07-16 07:11:00,
2013-07-16 03:16:00,71.8,70.6,30.08,NNW,335,0.0,0.0,96,0.00,CLR,OVC,0.00,0.0,WeatherDisplay:10.37,2013-07-16 07:16:00,
2013-07-16 03:21:00,71.6,70.4,30.08,NW,323,0.0,0.0,96,0.00,CLR,OVC,0.00,0.0,WeatherDisplay:10.37,2013-07-16 07:21:00,
2013-07-16 03:26:00,71.6,70.4,30.08,NW,320,0.0,0.0,96,0.00,CLR,OVC,0.00,0.0,WeatherDisplay:10.37,2013-07-16 07:26:00,
2013-07-16 03:31:00,71.4,70.2,30.08,NNW,327,0.0,0.0,96,0.00,CLR,OVC,0.00,0.0,WeatherDisplay:10.37,2013-07-16 07:31:00,
2013-07-16 03:36:00,71.4,70.2,30.08,NNW,344,0.0,0.0,96,0.00,CLR,OVC,0.00,0.0,WeatherDisplay:10.37,2013-07-16 07:36:00,
2013-07-16 03:41:00,71.2,70.0,30.08,NNW,344,0.0,0.0,96,0.00,CLR,OVC,0.00,0.0,WeatherDisplay:10.37,2013-07-16 07:41:00,
2013-07-16 03:46:00,71.2,70.0,30.08,NNW,333,0.0,0.0,96,0.00,CLR,OVC,0.00,0.0,WeatherDisplay:10.37,2013-07-16 07:46:00,
2013-07-16 03:51:00,71.1,69.9,30.08,NNW,339,0.0,0.0,96,0.00,CLR,OVC,0.00,0.0,WeatherDisplay:10.37,2013-07-16 07:51:00,
2013-07-16 03:56:00,71.1,69.9,30.08,NNW,339,0.0,0.0,96,0.00,CLR,OVC,0.00,0.0,WeatherDisplay:10.37,2013-07-16 07:56:00,
2013-07-16 04:01:00,70.9,69.7,30.08,NNW,334,0.0,0.0,96,0.00,CLR,OVC,0.00,0.0,WeatherDisplay:10.37,2013-07-16 08:01:00,
2013-07-16 04:06:00,70.9,69.7,30.08,NNW,334,0.0,0.0,96,0.00,CLR,OVC,0.00,0.0,WeatherDisplay:10.37,2013-07-16 08:06:00,
2013-07-16 04:11:00,70.7,69.5,30.08,NNW,334,0.0,0.0,96,0.00,CLR,OVC,0.00,0.0,WeatherDisplay:10.37,2013-07-16 08:11:00,
2013-07-16 04:16:00,70.7,69.5,30.08,NNW,334,0.0,0.0,96,0.00,CLR,OVC,0.00,0.0,WeatherDisplay:10.37,2013-07-16 08:16:00,
2013-07-16 04:21:00,70.5,69.3,30.08,NNW,334,0.0,0.0,96,0.00,CLR,OVC,0.00,0.0,WeatherDisplay:10.37,2013-07-16 08:21:00,
2013-07-16 04:26:00,70.3,69.1,30.08,NNW,334,0.0,0.0,96,0.00,CLR,OVC,0.00,0.0,WeatherDisplay:10.37,2013-07-16 08:26:00,
2013-07-16 04:31:00,70.3,69.1,30.08,NNW,334,0.0,0.0,96,0.00,CLR,OVC,0.00,0.0,WeatherDisplay:10.37,2013-07-16 08:31:00,
2013-07-16 04:36:00,70.2,69.0,30.08,NNW,334,0.0,0.0,96,0.00,CLR,OVC,0.00,0.0,WeatherDisplay:10.37,2013-07-16 08:36:00,
2013-07-16 04:41:00,70.2,69.3,30.08,NNW,334,0.0,0.0,97,0.00,CLR,OVC,0.00,0.0,WeatherDisplay:10.37,2013-07-16 08:41:00,
2013-07-16 04:46:00,70.2,69.3,30.08,NNW,334,0.0,0.0,97,0.00,CLR,OVC,0.00,0.0,WeatherDisplay:10.37,2013-07-16 08:46:00,
2013-07-16 04:51:00,70.0,69.1,30.08,NNW,334,0.0,0.0,97,0.00,CLR,OVC,0.00,0.0,WeatherDisplay:10.37,2013-07-16 08:51:00,
2013-07-16 04:56:00,70.0,69.1,30.11,NNW,343,0.0,0.0,97,0.00,CLR,OVC,0.00,0.0,WeatherDisplay:10.37,2013-07-16 08:56:00,
2013-07-16 05:01:00,70.0,69.1,30.11,NNW,343,0.0,0.0,97,0.00,CLR,OVC,0.00,0.0,WeatherDisplay:10.37,2013-07-16 09:01:00,
2013-07-16 05:06:00,69.8,68.9,30.11,NNW,343,0.0,0.0,97,0.00,CLR,OVC,0.00,0.0,WeatherDisplay:10.37,2013-07-16 09:06:00,
2013-07-16 05:11:00,69.8,68.9,30.11,NNW,343,0.0,0.0,97,0.00,CLR,OVC,0.00,0.0,WeatherDisplay:10.37,2013-07-16 09:11:00,
2013-07-16 05:16:00,69.6,68.7,30.11,NNW,343,0.0,0.0,97,0.00,CLR,OVC,0.00,0.0,WeatherDisplay:10.37,2013-07-16 09:16:00,
2013-07-16 05:21:00,69.6,68.7,30.11,NNW,343,0.0,0.0,97,0.00,CLR,OVC,0.00,0.0,WeatherDisplay:10.37,2013-07-16 09:21:00,
2013-07-16 05:26:00,69.4,68.6,30.11,NNW,343,0.0,0.0,97,0.00,CLR,OVC,0.00,0.0,WeatherDisplay:10.37,2013-07-16 09:26:00,
2013-07-16 05:31:00,69.4,68.6,30.11,NNW,343,0.0,0.0,97,0.00,CLR,OVC,0.00,0.0,WeatherDisplay:10.37,2013-07-16 09:31:00,
2013-07-16 05:36:00,69.3,68.4,30.11,NNW,343,0.0,0.0,97,0.00,CLR,OVC,0.00,0.0,WeatherDisplay:10.37,2013-07-16 09:36:00,
2013-07-16 05:41:00,69.3,68.4,30.11,NNW,344,0.0,0.0,97,0.00,CLR,OVC,0.00,0.0,WeatherDisplay:10.37,2013-07-16 09:41:00,
2013-07-16 05:46:00,69.1,68.2,30.11,NNW,343,0.0,0.0,97,0.00,CLR,OVC,0.00,0.0,WeatherDisplay:10.37,2013-07-16 09:46:00,
2013-07-16 05:51:00,69.1,68.2,30.11,NNW,343,0.0,0.0,97,0.00,CLR,OVC,0.00,0.0,WeatherDisplay:10.37,2013-07-16 09:51:00,
2013-07-16 05:56:00,69.1,68.2,30.08,NNW,343,0.0,0.0,97,0.00,CLR,OVC,0.00,0.0,WeatherDisplay:10.37,2013-07-16 09:56:00,
2013-07-16 06:01:00,69.1,68.2,30.08,NNW,343,0.0,0.0,97,0.00,SCT,OVC,0.00,0.0,WeatherDisplay:10.37,2013-07-16 10:01:00,
2013-07-16 06:06:00,68.9,68.0,30.08,NNW,343,0.0,0.0,97,0.00,SCT,OVC,0.00,0.0,WeatherDisplay:10.37,2013-07-16 10:06:00,
2013-07-16 06:11:00,68.9,68.0,30.11,NNW,343,0.0,0.0,97,0.00,SCT,OVC,0.00,0.0,WeatherDisplay:10.37,2013-07-16 10:11:00,
2013-07-16 06:16:00,68.9,68.0,30.11,NNW,343,0.0,0.0,97,0.00,SCT,OVC,0.00,0.0,WeatherDisplay:10.37,2013-07-16 10:16:00,
2013-07-16 06:21:00,68.9,68.0,30.11,NNW,343,0.0,0.0,97,0.00,SCT,OVC,0.00,0.0,WeatherDisplay:10.37,2013-07-16 10:21:00,
2013-07-16 06:26:00,68.7,67.8,30.11,NNW,343,0.0,0.0,97,0.00,SCT,OVC,0.00,0.0,WeatherDisplay:10.37,2013-07-16 10:26:00,
2013-07-16 06:31:00,68.9,68.0,30.11,NNW,342,0.0,0.0,97,0.00,SCT,OVC,0.00,0.0,WeatherDisplay:10.37,2013-07-16 10:31:00,
2013-07-16 06:36:00,68.9,68.0,30.11,NNW,343,0.0,0.0,97,0.00,SCT,OVC,0.00,0.0,WeatherDisplay:10.37,2013-07-16 10:36:00,
2013-07-16 06:41:00,68.9,68.0,30.11,NNW,343,0.0,0.0,97,0.00,SCT,OVC,0.00,0.0,WeatherDisplay:10.37,2013-07-16 10:41:00,
2013-07-16 06:46:00,69.1,68.2,30.11,NNW,343,0.0,0.0,97,0.00,SCT,OVC,0.00,0.0,WeatherDisplay:10.37,2013-07-16 10:46:00,
2013-07-16 06:51:00,69.1,68.5,30.11,NNW,343,0.0,0.0,98,0.00,SCT,OVC,0.00,0.0,WeatherDisplay:10.37,2013-07-16 10:51:00,
2013-07-16 06:56:00,69.3,68.7,30.11,NNW,343,0.0,0.0,98,0.00,SCT,OVC,0.00,0.0,WeatherDisplay:10.37,2013-07-16 10:56:00,
2013-07-16 07:01:00,69.4,68.9,30.11,NNW,343,0.0,0.0,98,0.00,CLR,OVC,0.00,0.0,WeatherDisplay:10.37,2013-07-16 11:01:00,
2013-07-16 07:06:00,69.6,69.0,30.11,NNW,344,0.0,0.0,98,0.00,CLR,OVC,0.00,0.0,WeatherDisplay:10.37,2013-07-16 11:06:00,
2013-07-16 07:11:00,69.8,69.2,30.11,NNW,343,0.0,0.0,98,0.00,CLR,OVC,0.00,0.0,WeatherDisplay:10.37,2013-07-16 11:11:00,
2013-07-16 07:16:00,70.0,69.4,30.11,NNW,344,0.0,0.0,98,0.00,CLR,OVC,0.00,0.0,WeatherDisplay:10.37,2013-07-16 11:16:00,
2013-07-16 07:21:00,70.2,69.6,30.11,NW,316,0.0,0.0,98,0.00,CLR,OVC,0.00,0.0,WeatherDisplay:10.37,2013-07-16 11:21:00,
2013-07-16 07:26:00,70.3,69.7,30.11,NW,320,0.0,0.0,98,0.00,CLR,OVC,0.00,0.0,WeatherDisplay:10.37,2013-07-16 11:26:00,
2013-07-16 07:31:00,70.7,70.1,30.11,NW,318,0.0,0.0,98,0.00,CLR,OVC,0.00,0.0,WeatherDisplay:10.37,2013-07-16 11:31:00,
2013-07-16 07:36:00,70.9,70.3,30.11,NW,326,0.0,0.0,98,0.00,CLR,OVC,0.00,0.0,WeatherDisplay:10.37,2013-07-16 11:36:00,
2013-07-16 07:41:00,71.1,70.5,30.11,NW,326,0.0,0.0,98,0.00,CLR,OVC,0.00,0.0,WeatherDisplay:10.37,2013-07-16 11:41:00,
2013-07-16 07:46:00,71.2,70.6,30.11,NNW,328,0.0,0.0,98,0.00,CLR,OVC,0.00,0.0,WeatherDisplay:10.37,2013-07-16 11:46:00,
2013-07-16 07:51:00,71.4,70.8,30.11,NW,304,0.0,0.0,98,0.00,CLR,OVC,0.00,0.0,WeatherDisplay:10.37,2013-07-16 11:51:00,
2013-07-16 07:56:00,71.8,71.2,30.11,NW,305,0.0,0.0,98,0.00,CLR,OVC,0.00,0.0,WeatherDisplay:10.37,2013-07-16 11:56:00,
2013-07-16 08:01:00,72.0,71.4,30.11,NW,305,0.0,0.0,98,0.00,CLR,OVC,0.00,0.0,WeatherDisplay:10.37,2013-07-16 12:01:00,
2013-07-16 08:06:00,72.3,71.7,30.11,NW,304,0.0,0.0,98,0.00,CLR,OVC,0.00,0.0,WeatherDisplay:10.37,2013-07-16 12:06:00,
2013-07-16 08:11:00,72.5,71.9,30.11,NNW,330,0.0,0.0,98,0.00,CLR,OVC,0.00,0.0,WeatherDisplay:10.37,2013-07-16 12:11:00,
2013-07-16 08:16:00,72.9,72.3,30.11,NW,318,3.5,3.5,98,0.00,CLR,OVC,0.00,0.0,WeatherDisplay:10.37,2013-07-16 12:16:00,
2013-07-16 08:21:00,73.2,72.6,30.11,NW,318,0.0,0.0,98,0.00,CLR,OVC,0.00,0.0,WeatherDisplay:10.37,2013-07-16 12:21:00,
2013-07-16 08:26:00,73.6,73.0,30.14,NW,318,0.0,0.0,98,0.00,CLR,OVC,0.00,0.0,WeatherDisplay:10.37,2013-07-16 12:26:00,
2013-07-16 08:31:00,73.9,73.0,30.14,NNW,342,0.0,0.0,97,0.00,CLR,OVC,0.00,0.0,WeatherDisplay:10.37,2013-07-16 12:31:00,
2013-07-16 08:36:00,74.1,73.2,30.14,WNW,297,0.0,0.0,97,0.00,CLR,OVC,0.00,0.0,WeatherDisplay:10.37,2013-07-16 12:36:00,
2013-07-16 08:41:00,74.5,73.6,30.14,NW,307,0.0,0.0,97,0.00,CLR,OVC,0.00,0.0,WeatherDisplay:10.37,2013-07-16 12:41:00,
2013-07-16 08:46:00,74.8,73.9,30.14,NNW,342,0.0,0.0,97,0.00,CLR,OVC,0.00,0.0,WeatherDisplay:10.37,2013-07-16 12:46:00,
2013-07-16 08:51:00,75.2,74.3,30.14,NNW,337,0.0,0.0,97,0.00,CLR,OVC,0.00,0.0,WeatherDisplay:10.37,2013-07-16 12:51:00,
2013-07-16 08:56:00,75.6,74.3,30.14,NW,326,0.0,0.0,96,0.00,CLR,OVC,0.00,0.0,WeatherDisplay:10.37,2013-07-16 12:56:00,
2013-07-16 09:01:00,75.9,74.7,30.14,North,6,3.5,0.0,96,0.00,FEW,OVC,0.00,0.0,WeatherDisplay:10.37,2013-07-16 13:01:00,
2013-07-16 09:06:00,76.3,75.1,30.14,NNW,347,0.0,0.0,96,0.00,FEW,OVC,0.00,0.0,WeatherDisplay:10.37,2013-07-16 13:06:00,
2013-07-16 09:11:00,76.6,75.1,30.14,NW,309,0.0,0.0,95,0.00,FEW,OVC,0.00,0.0,WeatherDisplay:10.37,2013-07-16 13:11:00,
2013-07-16 09:16:00,76.8,75.3,30.14,West,273,0.0,0.0,95,0.00,FEW,OVC,0.00,0.0,WeatherDisplay:10.37,2013-07-16 13:16:00,
2013-07-16 09:21:00,77.2,75.3,30.14,NNE,23,0.0,0.0,94,0.00,FEW,OVC,0.00,0.0,WeatherDisplay:10.37,2013-07-16 13:21:00,
2013-07-16 09:26:00,77.4,75.2,30.11,NW,319,0.0,0.0,93,0.00,FEW,OVC,0.00,0.0,WeatherDisplay:10.37,2013-07-16 13:26:00,
2013-07-16 09:31:00,77.7,75.2,30.11,NNE,31,0.0,0.0,92,0.00,FEW,OVC,0.00,0.0,WeatherDisplay:10.37,2013-07-16 13:31:00,
2013-07-16 09:36:00,78.1,75.2,30.11,North,9,0.0,0.0,91,0.00,FEW,OVC,0.00,0.0,WeatherDisplay:10.37,2013-07-16 13:36:00,
2013-07-16 09:41:00,78.4,75.3,30.11,NW,320,0.0,0.0,90,0.00,FEW,OVC,0.00,0.0,WeatherDisplay:10.37,2013-07-16 13:41:00,
2013-07-16 09:46:00,79.0,75.5,30.11,WNW,290,0.0,0.0,89,0.00,FEW,OVC,0.00,0.0,WeatherDisplay:10.37,2013-07-16 13:46:00,
2013-07-16 09:51:00,79.3,75.5,30.11,WNW,290,0.0,0.0,88,0.00,FEW,OVC,0.00,0.0,WeatherDisplay:10.37,2013-07-16 13:51:00,
2013-07-16 09:56:00,79.9,75.7,30.11,NNW,329,0.0,0.0,87,0.00,FEW,OVC,0.00,0.0,WeatherDisplay:10.37,2013-07-16 13:56:00,
2013-07-16 10:01:00,80.6,76.0,30.11,NNE,12,0.0,0.0,86,0.00,CLR,OVC,0.00,0.0,WeatherDisplay:10.37,2013-07-16 14:01:00,
2013-07-16 10:06:00,81.1,75.8,30.11,NNW,338,0.0,0.0,84,0.00,CLR,OVC,0.00,0.0,WeatherDisplay:10.37,2013-07-16 14:06:00,
2013-07-16 10:11:00,81.9,76.5,30.11,NNW,339,0.0,0.0,84,0.00,CLR,OVC,0.00,0.0,WeatherDisplay:10.37,2013-07-16 14:11:00,
2013-07-16 10:16:00,82.4,76.3,30.11,NW,325,0.0,0.0,82,0.00,CLR,OVC,0.00,0.0,WeatherDisplay:10.37,2013-07-16 14:16:00,
2013-07-16 10:21:00,82.9,76.1,30.11,NNW,341,5.8,5.8,80,0.00,CLR,OVC,0.00,0.0,WeatherDisplay:10.37,2013-07-16 14:21:00,
2013-07-16 10:26:00,83.7,76.5,30.11,NNE,19,0.0,0.0,79,0.00,CLR,OVC,0.00,0.0,WeatherDisplay:10.37,2013-07-16 14:26:00,
2013-07-16 10:31:00,84.2,75.8,30.11,WNW,296,3.5,0.0,76,0.00,CLR,OVC,0.00,0.0,WeatherDisplay:10.37,2013-07-16 14:31:00,
2013-07-16 10:36:00,84.7,75.9,30.11,NW,310,2.3,0.0,75,0.00,CLR,OVC,0.00,0.0,WeatherDisplay:10.37,2013-07-16 14:36:00,
2013-07-16 10:41:00,85.5,75.8,30.11,NNW,332,0.0,0.0,73,0.00,CLR,OVC,0.00,0.0,WeatherDisplay:10.37,2013-07-16 14:41:00,
2013-07-16 10:46:00,86.0,75.5,30.11,NW,304,4.6,4.6,71,0.00,CLR,OVC,0.00,0.0,WeatherDisplay:10.37,2013-07-16 14:46:00,
2013-07-16 10:51:00,86.4,74.5,30.11,WNW,299,3.5,0.0,68,0.00,CLR,OVC,0.00,0.0,WeatherDisplay:10.37,2013-07-16 14:51:00,
2013-07-16 10:56:00,86.9,75.5,30.11,North,10,0.0,0.0,69,0.00,CLR,OVC,0.00,0.0,WeatherDisplay:10.37,2013-07-16 14:56:00,
2013-07-16 11:01:00,87.3,75.4,30.11,North,358,0.0,0.0,68,0.00,SCT,OVC,0.00,0.0,WeatherDisplay:10.37,2013-07-16 15:01:00,
2013-07-16 11:06:00,87.8,75.5,30.11,NNW,332,0.0,0.0,67,0.00,SCT,OVC,0.00,0.0,WeatherDisplay:10.37,2013-07-16 15:06:00,
2013-07-16 11:11:00,88.2,74.9,30.11,WNW,284,5.8,5.8,65,0.00,SCT,OVC,0.00,0.0,WeatherDisplay:10.37,2013-07-16 15:11:00,
2013-07-16 11:16:00,88.3,75.1,30.11,North,359,5.8,5.8,65,0.00,SCT,OVC,0.00,0.0,WeatherDisplay:10.37,2013-07-16 15:16:00,
2013-07-16 11:21:00,88.5,74.8,30.11,North,356,0.0,0.0,64,0.00,SCT,OVC,0.00,0.0,WeatherDisplay:10.37,2013-07-16 15:21:00,
2013-07-16 11:26:00,88.9,74.7,30.11,North,7,0.0,0.0,63,0.00,SCT,OVC,0.00,0.0,WeatherDisplay:10.37,2013-07-16 15:26:00,
2013-07-16 11:31:00,89.2,75.0,30.11,NE,40,0.0,0.0,63,0.00,SCT,OVC,0.00,0.0,WeatherDisplay:10.37,2013-07-16 15:31:00,
2013-07-16 11:36:00,89.4,73.7,30.11,North,356,0.0,0.0,60,0.00,SCT,OVC,0.00,0.0,WeatherDisplay:10.37,2013-07-16 15:36:00,
2013-07-16 11:41:00,89.6,73.4,30.11,North,355,0.0,0.0,59,0.00,SCT,OVC,0.00,0.0,WeatherDisplay:10.37,2013-07-16 15:41:00,
2013-07-16 11:46:00,89.8,73.5,30.11,North,10,0.0,0.0,59,0.00,SCT,OVC,0.00,0.0,WeatherDisplay:10.37,2013-07-16 15:46:00,
2013-07-16 11:51:00,90.0,73.2,30.11,NNW,334,0.0,0.0,58,0.00,SCT,OVC,0.00,0.0,WeatherDisplay:10.37,2013-07-16 15:51:00,
2013-07-16 11:56:00,90.1,72.8,30.11,NNW,341,3.5,0.0,57,0.00,SCT,OVC,0.00,0.0,WeatherDisplay:10.37,2013-07-16 15:56:00,
2013-07-16 12:01:00,90.1,71.8,30.11,NW,320,3.5,3.5,55,0.00,FEW,OVC,0.00,0.0,WeatherDisplay:10.37,2013-07-16 16:01:00,
2013-07-16 12:06:00,90.3,72.0,30.11,WSW,252,2.3,0.0,55,0.00,FEW,OVC,0.00,0.0,WeatherDisplay:10.37,2013-07-16 16:06:00,
2013-07-16 12:11:00,90.5,72.1,30.11,WNW,302,3.5,3.5,55,0.00,FEW,OVC,0.00,0.0,WeatherDisplay:10.37,2013-07-16 16:11:00,
2013-07-16 12:16:00,90.7,72.3,30.11,NNW,347,3.5,0.0,55,0.00,FEW,OVC,0.00,0.0,WeatherDisplay:10.37,2013-07-16 16:16:00,
2013-07-16 12:21:00,90.9,72.5,30.11,North,355,0.0,0.0,55,0.00,FEW,OVC,0.00,0.0,WeatherDisplay:10.37,2013-07-16 16:21:00,
2013-07-16 12:26:00,91.2,72.8,30.11,NNW,343,2.3,0.0,55,0.00,FEW,OVC,0.00,0.0,WeatherDisplay:10.37,2013-07-16 16:26:00,
2013-07-16 12:31:00,91.2,72.2,30.11,NW,324,3.5,3.5,54,0.00,FEW,OVC,0.00,0.0,WeatherDisplay:10.37,2013-07-16 16:31:00,
2013-07-16 12:36:00,91.4,71.9,30.11,NW,309,5.8,5.8,53,0.00,FEW,OVC,0.00,0.0,WeatherDisplay:10.37,2013-07-16 16:36:00,
2013-07-16 12:41:00,91.4,71.9,30.11,NW,324,0.0,0.0,53,0.00,FEW,OVC,0.00,0.0,WeatherDisplay:10.37,2013-07-16 16:41:00,
2013-07-16 12:46:00,91.6,71.5,30.11,North,4,3.5,3.5,52,0.00,FEW,OVC,0.00,0.0,WeatherDisplay:10.37,2013-07-16 16:46:00,
2013-07-16 12:51:00,91.8,71.6,30.11,NE,38,0.0,0.0,52,0.00,FEW,OVC,0.00,0.0,WeatherDisplay:10.37,2013-07-16 16:51:00,
2013-07-16 12:56:00,92.1,71.4,30.11,NNE,28,0.0,0.0,51,0.00,FEW,OVC,0.00,0.0,WeatherDisplay:10.37,2013-07-16 16:56:00,
2013-07-16 13:01:00,92.3,71.6,30.11,NNW,327,3.5,3.5,51,0.00,FEW,OVC,0.00,0.0,WeatherDisplay:10.37,2013-07-16 17:01:00,
2013-07-16 13:06:00,92.3,71.0,30.11,NW,314,3.5,0.0,50,0.00,FEW,OVC,0.00,0.0,WeatherDisplay:10.37,2013-07-16 17:06:00,
2013-07-16 13:11:00,92.5,70.5,30.11,NW,314,5.8,5.8,49,0.00,FEW,OVC,0.00,0.0,WeatherDisplay:10.37,2013-07-16 17:11:00,
2013-07-16 13:16:00,92.7,70.1,30.11,NNE,19,4.6,4.6,48,0.00,FEW,OVC,0.00,0.0,WeatherDisplay:10.37,2013-07-16 17:16:00,
2013-07-16 13:21:00,92.7,70.1,30.11,WNW,290,3.5,0.0,48,0.00,FEW,OVC,0.00,0.0,WeatherDisplay:10.37,2013-07-16 17:21:00,
2013-07-16 13:26:00,92.8,70.3,30.11,NE,43,3.5,3.5,48,0.00,FEW,OVC,0.00,0.0,WeatherDisplay:10.37,2013-07-16 17:26:00,
2013-07-16 13:31:00,93.0,70.4,30.11,NNW,335,0.0,0.0,48,0.00,FEW,OVC,0.00,0.0,WeatherDisplay:10.37,2013-07-16 17:31:00,
2013-07-16 13:36:00,93.2,69.3,30.11,NNW,331,0.0,0.0,46,0.00,FEW,OVC,0.00,0.0,WeatherDisplay:10.37,2013-07-16 17:36:00,
2013-07-16 13:41:00,93.2,70.6,30.11,NE,49,0.0,0.0,48,0.00,FEW,OVC,0.00,0.0,WeatherDisplay:10.37,2013-07-16 17:41:00,
2013-07-16 13:46:00,92.8,70.3,30.11,West,280,0.0,0.0,48,0.00,FEW,OVC,0.00,0.0,WeatherDisplay:10.37,2013-07-16 17:46:00,
2013-07-16 13:51:00,92.7,70.1,30.11,NNE,23,2.3,0.0,48,0.00,FEW,OVC,0.00,0.0,WeatherDisplay:10.37,2013-07-16 17:51:00,
2013-07-16 13:56:00,92.8,70.3,30.08,WNW,303,0.0,0.0,48,0.00,FEW,OVC,0.00,0.0,WeatherDisplay:10.37,2013-07-16 17:56:00,
2013-07-16 14:01:00,92.7,70.1,30.08,East,97,0.0,0.0,48,0.00,SCT,OVC,0.00,0.0,WeatherDisplay:10.37,2013-07-16 18:01:00,
2013-07-16 14:06:00,92.3,69.8,30.08,NNE,15,0.0,0.0,48,0.00,SCT,OVC,0.00,0.0,WeatherDisplay:10.37,2013-07-16 18:06:00,
2013-07-16 14:11:00,91.6,69.1,30.08,NW,311,0.0,0.0,48,0.00,SCT,OVC,0.00,0.0,WeatherDisplay:10.37,2013-07-16 18:11:00,
2013-07-16 14:16:00,91.4,69.0,30.08,North,357,0.0,0.0,48,0.00,SCT,OVC,0.00,0.0,WeatherDisplay:10.37,2013-07-16 18:16:00,
2013-07-16 14:21:00,91.8,71.1,30.08,NNW,345,0.0,2.2,51,0.00,SCT,OVC,0.00,0.0,WeatherDisplay:10.37,2013-07-16 18:21:00,
2013-07-16 14:26:00,92.1,70.2,30.08,NNW,332,0.0,0.0,49,0.00,SCT,OVC,0.00,0.0,WeatherDisplay:10.37,2013-07-16 18:26:00,
2013-07-16 14:31:00,92.7,70.7,30.08,NE,36,0.0,0.0,49,0.00,SCT,OVC,0.00,0.0,WeatherDisplay:10.37,2013-07-16 18:31:00,
2013-07-16 14:36:00,93.0,70.4,30.08,North,357,0.0,0.0,48,0.00,SCT,OVC,0.00,0.0,WeatherDisplay:10.37,2013-07-16 18:36:00,
2013-07-16 14:41:00,92.8,70.3,30.08,North,358,0.0,0.0,48,0.00,SCT,OVC,0.00,0.0,WeatherDisplay:10.37,2013-07-16 18:41:00,
2013-07-16 14:46:00,92.7,70.1,30.08,NNW,333,3.5,0.0,48,0.00,SCT,OVC,0.00,0.0,WeatherDisplay:10.37,2013-07-16 18:46:00,
2013-07-16 14:51:00,92.5,69.9,30.08,NW,326,0.0,0.0,48,0.00,SCT,OVC,0.00,0.0,WeatherDisplay:10.37,2013-07-16 18:51:00,
2013-07-16 14:56:00,92.8,70.3,30.08,NNE,12,3.5,3.5,48,0.00,SCT,OVC,0.00,0.0,WeatherDisplay:10.37,2013-07-16 18:56:00,
2013-07-16 15:01:00,92.8,69.0,30.08,WNW,295,0.0,0.0,46,0.00,SCT,OVC,0.00,0.0,WeatherDisplay:10.37,2013-07-16 19:01:00,
2013-07-16 15:06:00,93.2,69.3,30.08,NNW,332,0.0,0.0,46,0.00,SCT,OVC,0.00,0.0,WeatherDisplay:10.37,2013-07-16 19:06:00,
2013-07-16 15:11:00,93.4,69.5,30.08,NNE,19,0.0,0.0,46,0.00,SCT,OVC,0.00,0.0,WeatherDisplay:10.37,2013-07-16 19:11:00,
2013-07-16 15:16:00,93.6,70.9,30.08,NNW,334,0.0,0.0,48,0.00,SCT,OVC,0.00,0.0,WeatherDisplay:10.37,2013-07-16 19:16:00,
2013-07-16 15:21:00,93.7,69.2,30.08,NW,316,3.5,0.0,45,0.00,SCT,OVC,0.00,0.0,WeatherDisplay:10.37,2013-07-16 19:21:00,
2013-07-16 15:26:00,93.6,68.4,30.08,NNW,338,0.0,0.0,44,0.00,SCT,OVC,0.00,0.0,WeatherDisplay:10.37,2013-07-16 19:26:00,
2013-07-16 15:31:00,93.7,69.2,30.08,North,360,0.0,0.0,45,0.00,SCT,OVC,0.00,0.0,WeatherDisplay:10.37,2013-07-16 19:31:00,
2013-07-16 15:36:00,93.7,69.2,30.08,NNE,16,3.5,0.0,45,0.00,SCT,OVC,0.00,0.0,WeatherDisplay:10.37,2013-07-16 19:36:00,
2013-07-16 15:41:00,93.9,68.7,30.08,NNE,22,0.0,0.0,44,0.00,SCT,OVC,0.00,0.0,WeatherDisplay:10.37,2013-07-16 19:41:00,
2013-07-16 15:46:00,93.7,68.5,30.08,West,280,0.0,0.0,44,0.00,SCT,OVC,0.00,0.0,WeatherDisplay:10.37,2013-07-16 19:46:00,
2013-07-16 15:51:00,93.7,68.5,30.08,North,355,0.0,0.0,44,0.00,SCT,OVC,0.00,0.0,WeatherDisplay:10.37,2013-07-16 19:51:00,
2013-07-16 15:56:00,93.7,69.2,30.08,ENE,61,0.0,0.0,45,0.00,SCT,OVC,0.00,0.0,WeatherDisplay:10.37,2013-07-16 19:56:00,
2013-07-16 16:01:00,93.6,69.0,30.08,North,2,0.0,0.0,45,0.00,SCT,OVC,0.00,0.0,WeatherDisplay:10.37,2013-07-16 20:01:00,
2013-07-16 16:06:00,93.6,69.0,30.08,NNW,344,2.3,0.0,45,0.00,SCT,OVC,0.00,0.0,WeatherDisplay:10.37,2013-07-16 20:06:00,
2013-07-16 16:11:00,93.6,69.0,30.08,North,4,0.0,0.0,45,0.00,SCT,OVC,0.00,0.0,WeatherDisplay:10.37,2013-07-16 20:11:00,
2013-07-16 16:16:00,93.6,69.0,30.08,NNE,33,0.0,0.0,45,0.00,SCT,OVC,0.00,0.0,WeatherDisplay:10.37,2013-07-16 20:16:00,
2013-07-16 16:21:00,93.2,68.7,30.08,ENE,63,3.5,0.0,45,0.00,SCT,OVC,0.00,0.0,WeatherDisplay:10.37,2013-07-16 20:21:00,
2013-07-16 16:26:00,93.0,68.5,30.08,North,355,0.0,0.0,45,0.00,SCT,OVC,0.00,0.0,WeatherDisplay:10.37,2013-07-16 20:26:00,
2013-07-16 16:31:00,93.0,68.5,30.08,North,355,0.0,0.0,45,0.00,SCT,OVC,0.00,0.0,WeatherDisplay:10.37,2013-07-16 20:31:00,
2013-07-16 16:36:00,92.8,68.4,30.08,NNE,13,0.0,0.0,45,0.00,SCT,OVC,0.00,0.0,WeatherDisplay:10.37,2013-07-16 20:36:00,
2013-07-16 16:41:00,92.8,68.4,30.08,NE,37,0.0,0.0,45,0.00,SCT,OVC,0.00,0.0,WeatherDisplay:10.37,2013-07-16 20:41:00,
2013-07-16 16:46:00,92.8,68.4,30.08,NE,54,0.0,0.0,45,0.00,SCT,OVC,0.00,0.0,WeatherDisplay:10.37,2013-07-16 20:46:00,
2013-07-16 16:51:00,92.8,68.4,30.08,NNW,336,0.0,0.0,45,0.00,SCT,OVC,0.00,0.0,WeatherDisplay:10.37,2013-07-16 20:51:00,
2013-07-16 16:56:00,92.8,69.0,30.08,NW,319,0.0,0.0,46,0.00,SCT,OVC,0.00,0.0,WeatherDisplay:10.37,2013-07-16 20:56:00,
2013-07-16 17:01:00,92.8,69.0,30.08,West,268,0.0,0.0,46,0.00,SCT,OVC,0.00,0.0,WeatherDisplay:10.37,2013-07-16 21:01:00,
2013-07-16 17:06:00,92.8,69.0,30.08,WNW,283,0.0,0.0,46,0.00,SCT,OVC,0.00,0.0,WeatherDisplay:10.37,2013-07-16 21:06:00,
2013-07-16 17:11:00,92.7,70.1,30.08,WNW,283,0.0,0.0,48,0.00,SCT,OVC,0.00,0.0,WeatherDisplay:10.37,2013-07-16 21:11:00,
2013-07-16 17:16:00,92.5,69.9,30.08,WNW,283,0.0,0.0,48,0.00,SCT,OVC,0.00,0.0,WeatherDisplay:10.37,2013-07-16 21:16:00,
2013-07-16 17:21:00,92.3,69.8,30.08,WNW,283,0.0,0.0,48,0.00,SCT,OVC,0.00,0.0,WeatherDisplay:10.37,2013-07-16 21:21:00,
2013-07-16 17:26:00,91.9,70.0,30.08,WNW,292,0.0,0.0,49,0.00,SCT,OVC,0.00,0.0,WeatherDisplay:10.37,2013-07-16 21:26:00,
2013-07-16 17:31:00,91.8,69.9,30.08,NW,319,0.0,0.0,49,0.00,SCT,OVC,0.00,0.0,WeatherDisplay:10.37,2013-07-16 21:31:00,
2013-07-16 17:36:00,91.8,69.3,30.08,NW,321,0.0,0.0,48,0.00,SCT,OVC,0.00,0.0,WeatherDisplay:10.37,2013-07-16 21:36:00,
2013-07-16 17:41:00,91.6,69.1,30.08,WSW,257,0.0,0.0,48,0.00,SCT,OVC,0.00,0.0,WeatherDisplay:10.37,2013-07-16 21:41:00,
2013-07-16 17:46:00,91.4,69.6,30.08,WSW,257,0.0,0.0,49,0.00,SCT,OVC,0.00,0.0,WeatherDisplay:10.37,2013-07-16 21:46:00,
2013-07-16 17:51:00,91.2,70.0,30.08,WSW,257,0.0,0.0,50,0.00,SCT,OVC,0.00,0.0,WeatherDisplay:10.37,2013-07-16 21:51:00,
2013-07-16 17:56:00,91.2,69.4,30.08,WSW,257,0.0,0.0,49,0.00,SCT,OVC,0.00,0.0,WeatherDisplay:10.37,2013-07-16 21:56:00,
2013-07-16 18:01:00,91.0,70.4,30.08,NNW,336,0.0,0.0,51,0.00,SCT,OVC,0.00,0.0,WeatherDisplay:10.37,2013-07-16 22:01:00,
2013-07-16 18:06:00,90.7,70.6,30.08,NNW,336,0.0,0.0,52,0.00,SCT,OVC,0.00,0.0,WeatherDisplay:10.37,2013-07-16 22:06:00,
2013-07-16 18:11:00,90.5,70.5,30.08,NNW,336,0.0,0.0,52,0.00,SCT,OVC,0.00,0.0,WeatherDisplay:10.37,2013-07-16 22:11:00,
2013-07-16 18:16:00,90.1,70.7,30.08,WNW,300,0.0,0.0,53,0.00,SCT,OVC,0.00,0.0,WeatherDisplay:10.37,2013-07-16 22:16:00,
2013-07-16 18:21:00,90.0,71.1,30.08,WNW,299,0.0,0.0,54,0.00,SCT,OVC,0.00,0.0,WeatherDisplay:10.37,2013-07-16 22:21:00,
2013-07-16 18:26:00,89.4,71.1,30.08,WNW,300,0.0,0.0,55,0.00,SCT,OVC,0.00,0.0,WeatherDisplay:10.37,2013-07-16 22:26:00,
2013-07-16 18:32:00,89.1,70.8,30.08,WNW,299,0.0,0.0,55,0.00,SCT,OVC,0.00,0.0,WeatherDisplay:10.37,2013-07-16 22:32:00,
2013-07-16 18:37:00,88.7,70.5,30.08,WNW,300,0.0,0.0,55,0.00,SCT,OVC,0.00,0.0,WeatherDisplay:10.37,2013-07-16 22:37:00,
2013-07-16 18:42:00,88.2,70.0,30.08,WNW,300,0.0,0.0,55,0.00,SCT,OVC,0.00,0.0,WeatherDisplay:10.37,2013-07-16 22:42:00,
2013-07-16 18:47:00,87.6,70.0,30.08,WNW,300,0.0,0.0,56,0.00,SCT,OVC,0.00,0.0,WeatherDisplay:10.37,2013-07-16 22:47:00,
2013-07-16 18:52:00,87.3,69.6,30.08,WNW,300,0.0,0.0,56,0.00,SCT,OVC,0.00,0.0,WeatherDisplay:10.37,2013-07-16 22:52:00,
2013-07-16 18:57:00,87.1,70.0,30.08,WNW,300,0.0,0.0,57,0.00,SCT,OVC,0.00,0.0,WeatherDisplay:10.37,2013-07-16 22:57:00,
2013-07-16 19:02:00,86.7,69.7,30.08,WNW,300,0.0,0.0,57,0.00,SCT,OVC,0.00,0.0,WeatherDisplay:10.37,2013-07-16 23:02:00,
2013-07-16 19:07:00,86.4,69.3,30.08,WNW,300,0.0,0.0,57,0.00,SCT,OVC,0.00,0.0,WeatherDisplay:10.37,2013-07-16 23:07:00,
2013-07-16 19:12:00,86.2,69.7,30.08,WNW,301,0.0,0.0,58,0.00,SCT,OVC,0.00,0.0,WeatherDisplay:10.37,2013-07-16 23:12:00,
2013-07-16 19:17:00,85.8,69.8,30.08,WNW,300,0.0,0.0,59,0.00,SCT,OVC,0.00,0.0,WeatherDisplay:10.37,2013-07-16 23:17:00,
2013-07-16 19:22:00,85.6,70.2,30.08,WNW,300,0.0,0.0,60,0.00,SCT,OVC,0.00,0.0,WeatherDisplay:10.37,2013-07-16 23:22:00,
2013-07-16 19:27:00,85.3,70.8,30.08,WNW,300,0.0,0.0,62,0.00,SCT,OVC,0.00,0.0,WeatherDisplay:10.37,2013-07-16 23:27:00,
2013-07-16 19:32:00,84.9,70.4,30.08,WNW,301,0.0,0.0,62,0.00,SCT,OVC,0.00,0.0,WeatherDisplay:10.37,2013-07-16 23:32:00,
2013-07-16 19:37:00,84.6,70.6,30.08,WNW,301,0.0,0.0,63,0.00,SCT,OVC,0.00,0.0,WeatherDisplay:10.37,2013-07-16 23:37:00,
2013-07-16 19:42:00,84.2,70.2,30.08,WNW,300,0.0,0.0,63,0.00,SCT,OVC,0.00,0.0,WeatherDisplay:10.37,2013-07-16 23:42:00,
2013-07-16 19:47:00,83.8,70.4,30.08,WNW,301,0.0,0.0,64,0.00,SCT,OVC,0.00,0.0,WeatherDisplay:10.37,2013-07-16 23:47:00,
2013-07-16 19:52:00,83.7,70.2,30.08,WNW,300,0.0,0.0,64,0.00,SCT,OVC,0.00,0.0,WeatherDisplay:10.37,2013-07-16 23:52:00,
2013-07-16 19:57:00,83.3,69.4,30.11,WNW,300,0.0,0.0,63,0.00,SCT,OVC,0.00,0.0,WeatherDisplay:10.37,2013-07-16 23:57:00,
2013-07-16 20:02:00,82.8,69.3,30.11,WNW,300,0.0,0.0,64,0.00,SCT,OVC,0.00,0.0,WeatherDisplay:10.37,2013-07-17 00:02:00,
2013-07-16 20:07:00,82.4,68.5,30.11,WNW,300,0.0,0.0,63,0.00,SCT,OVC,0.00,0.0,WeatherDisplay:10.37,2013-07-17 00:07:00,
2013-07-16 20:12:00,82.2,69.3,30.11,SSE,165,0.0,0.0,65,0.00,SCT,OVC,0.00,0.0,WeatherDisplay:10.37,2013-07-17 00:12:00,
2013-07-16 20:17:00,81.9,68.9,30.11,South,183,0.0,0.0,65,0.00,SCT,OVC,0.00,0.0,WeatherDisplay:10.37,2013-07-17 00:17:00,
2013-07-16 20:22:00,81.7,69.2,30.11,South,183,0.0,0.0,66,0.00,SCT,OVC,0.00,0.0,WeatherDisplay:10.37,2013-07-17 00:22:00,
2013-07-16 20:27:00,81.5,69.0,30.11,South,183,0.0,0.0,66,0.00,SCT,OVC,0.00,0.0,WeatherDisplay:10.37,2013-07-17 00:27:00,
2013-07-16 20:32:00,81.3,69.3,30.11,SSW,198,0.0,0.0,67,0.00,SCT,OVC,0.00,0.0,WeatherDisplay:10.37,2013-07-17 00:32:00,
2013-07-16 20:37:00,81.1,69.1,30.11,SSW,199,0.0,0.0,67,0.00,SCT,OVC,0.00,0.0,WeatherDisplay:10.37,2013-07-17 00:37:00,
2013-07-16 20:42:00,81.0,69.0,30.11,SSW,198,0.0,0.0,67,0.00,SCT,OVC,0.00,0.0,WeatherDisplay:10.37,2013-07-17 00:42:00,
2013-07-16 20:47:00,81.0,69.0,30.11,SSW,198,0.0,0.0,67,0.00,SCT,OVC,0.00,0.0,WeatherDisplay:10.37,2013-07-17 00:47:00,
2013-07-16 20:52:00,80.8,69.2,30.11,SSW,199,0.0,0.0,68,0.00,SCT,OVC,0.00,0.0,WeatherDisplay:10.37,2013-07-17 00:52:00,
2013-07-16 20:57:00,80.8,69.2,30.11,SW,225,0.0,0.0,68,0.00,SCT,OVC,0.00,0.0,WeatherDisplay:10.37,2013-07-17 00:57:00,
2013-07-16 21:02:00,80.6,69.5,30.11,West,260,0.0,0.0,69,0.00,SCT,OVC,0.00,0.0,WeatherDisplay:10.37,2013-07-17 01:02:00,
2013-07-16 21:07:00,80.6,69.5,30.11,South,191,0.0,0.0,69,0.00,SCT,OVC,0.00,0.0,WeatherDisplay:10.37,2013-07-17 01:07:00,
2013-07-16 21:12:00,80.4,69.7,30.11,SSW,201,0.0,0.0,70,0.00,SCT,OVC,0.00,0.0,WeatherDisplay:10.37,2013-07-17 01:12:00,
2013-07-16 21:17:00,80.4,69.7,30.11,SSW,201,0.0,0.0,70,0.00,SCT,OVC,0.00,0.0,WeatherDisplay:10.37,2013-07-17 01:17:00,
2013-07-16 21:22:00,80.4,69.7,30.11,SSW,202,0.0,0.0,70,0.00,SCT,OVC,0.00,0.0,WeatherDisplay:10.37,2013-07-17 01:22:00,
2013-07-16 21:27:00,80.2,69.6,30.14,SSW,201,0.0,0.0,70,0.00,SCT,OVC,0.00,0.0,WeatherDisplay:10.37,2013-07-17 01:27:00,
2013-07-16 21:32:00,80.2,69.6,30.14,SSE,155,0.0,0.0,70,0.00,SCT,OVC,0.00,0.0,WeatherDisplay:10.37,2013-07-17 01:32:00,
2013-07-16 21:37:00,80.1,69.4,30.14,SE,140,0.0,0.0,70,0.00,SCT,OVC,0.00,0.0,WeatherDisplay:10.37,2013-07-17 01:37:00,
2013-07-16 21:42:00,79.9,69.2,30.14,SE,140,0.0,0.0,70,0.00,SCT,OVC,0.00,0.0,WeatherDisplay:10.37,2013-07-17 01:42:00,
2013-07-16 21:47:00,79.9,69.2,30.14,South,177,0.0,0.0,70,0.00,SCT,OVC,0.00,0.0,WeatherDisplay:10.37,2013-07-17 01:47:00,
2013-07-16 21:52:00,79.7,69.0,30.14,South,177,0.0,0.0,70,0.00,SCT,OVC,0.00,0.0,WeatherDisplay:10.37,2013-07-17 01:52:00,
2013-07-16 21:57:00,79.5,68.9,30.14,South,170,0.0,0.0,70,0.00,SCT,OVC,0.00,0.0,WeatherDisplay:10.37,2013-07-17 01:57:00,
2013-07-16 22:02:00,79.5,68.9,30.14,South,170,0.0,0.0,70,0.00,SCT,OVC,0.00,0.0,WeatherDisplay:10.37,2013-07-17 02:02:00,
2013-07-16 22:07:00,79.3,69.1,30.14,South,170,0.0,0.0,71,0.00,SCT,OVC,0.00,0.0,WeatherDisplay:10.37,2013-07-17 02:07:00,
2013-07-16 22:12:00,79.3,69.1,30.14,South,170,0.0,0.0,71,0.00,SCT,OVC,0.00,0.0,WeatherDisplay:10.37,2013-07-17 02:12:00,
2013-07-16 22:17:00,79.2,68.9,30.14,South,170,0.0,0.0,71,0.00,SCT,OVC,0.00,0.0,WeatherDisplay:10.37,2013-07-17 02:17:00,
2013-07-16 22:22:00,79.0,68.8,30.14,South,170,0.0,0.0,71,0.00,SCT,OVC,0.00,0.0,WeatherDisplay:10.37,2013-07-17 02:22:00,
2013-07-16 22:27:00,79.0,68.8,30.14,South,169,0.0,0.0,71,0.00,SCT,OVC,0.00,0.0,WeatherDisplay:10.37,2013-07-17 02:27:00,
2013-07-16 22:32:00,78.8,69.0,30.14,South,170,0.0,0.0,72,0.00,SCT,OVC,0.00,0.0,WeatherDisplay:10.37,2013-07-17 02:32:00,
2013-07-16 22:37:00,78.6,68.8,30.14,South,170,0.0,0.0,72,0.00,SCT,OVC,0.00,0.0,WeatherDisplay:10.37,2013-07-17 02:37:00,
2013-07-16 22:42:00,78.4,69.1,30.14,South,170,0.0,0.0,73,0.00,SCT,OVC,0.00,0.0,WeatherDisplay:10.37,2013-07-17 02:42:00,
2013-07-16 22:47:00,78.3,68.9,30.14,South,170,0.0,0.0,73,0.00,SCT,OVC,0.00,0.0,WeatherDisplay:10.37,2013-07-17 02:47:00,
2013-07-16 22:52:00,77.9,68.9,30.14,South,170,0.0,0.0,74,0.00,SCT,OVC,0.00,0.0,WeatherDisplay:10.37,2013-07-17 02:52:00,
2013-07-16 22:57:00,77.7,68.8,30.14,South,170,0.0,0.0,74,0.00,SCT,OVC,0.00,0.0,WeatherDisplay:10.37,2013-07-17 02:57:00,
2013-07-16 23:02:00,77.5,69.0,30.14,South,170,0.0,0.0,75,0.00,FEW,OVC,0.00,0.0,WeatherDisplay:10.37,2013-07-17 03:02:00,
2013-07-16 23:07:00,77.4,68.8,30.14,South,170,0.0,0.0,75,0.00,FEW,OVC,0.00,0.0,WeatherDisplay:10.37,2013-07-17 03:07:00,
2013-07-16 23:12:00,77.0,68.9,30.14,South,170,0.0,0.0,76,0.00,FEW,OVC,0.00,0.0,WeatherDisplay:10.37,2013-07-17 03:12:00,
2013-07-16 23:17:00,76.8,68.7,30.14,South,170,0.0,0.0,76,0.00,FEW,OVC,0.00,0.0,WeatherDisplay:10.37,2013-07-17 03:17:00,
2013-07-16 23:22:00,76.6,68.5,30.14,South,170,0.0,0.0,76,0.00,FEW,OVC,0.00,0.0,WeatherDisplay:10.37,2013-07-17 03:22:00,
2013-07-16 23:27:00,76.5,68.7,30.14,South,170,0.0,0.0,77,0.00,FEW,OVC,0.00,0.0,WeatherDisplay:10.37,2013-07-17 03:27:00,
2013-07-16 23:32:00,76.3,68.9,30.14,South,170,0.0,0.0,78,0.00,FEW,OVC,0.00,0.0,WeatherDisplay:10.37,2013-07-17 03:32:00,
2013-07-16 23:37:00,75.9,68.6,30.14,South,170,0.0,0.0,78,0.00,FEW,OVC,0.00,0.0,WeatherDisplay:10.37,2013-07-17 03:37:00,
2013-07-16 23:42:00,75.7,68.8,30.14,South,170,0.0,0.0,79,0.00,FEW,OVC,0.00,0.0,WeatherDisplay:10.37,2013-07-17 03:42:00,
2013-07-16 23:47:00,75.6,69.0,30.14,South,170,0.0,0.0,80,0.00,FEW,OVC,0.00,0.0,WeatherDisplay:10.37,2013-07-17 03:47:00,
2013-07-16 23:52:00,75.4,68.8,30.14,South,170,0.0,0.0,80,0.00,FEW,OVC,0.00,0.0,WeatherDisplay:10.37,2013-07-17 03:52:00,
2013-07-16 23:57:00,75.2,68.6,30.14,South,170,0.0,0.0,80,0.00,FEW,OVC,0.00,0.0,WeatherDisplay:10.37,2013-07-17 03:57:00,